Location: Unspecified
(54.1780°N, 0.0000°E)
Time: 17:12:08
(UTC+00:00)

S-56A Canister/Altair - Pass Details

Date: 22 June 2019
Orbit: 632 x 2500 km, 38.9° (Epoch: 15 July)

Event Time Altitude Azimuth Distance (km) Brightness Sun altitude
Rises 19:44:41 0° 255° (WSW) 3,909 11.8 5.2°
Reaches altitude 10° 19:49:21 10° 230° (SW) 2,573 10.5 4.6°
Maximum altitude 19:51:49 13° 204° (SSW) 2,202 9.8 4.3°
Drops below altitude 10° 19:54:04 10° 178° (S) 2,254 9.6 4.0°
Sets 19:57:34 0° 149° (SSE) 3,002 10.0 3.6°
